Flag for Honduras Weather past 2 weeks in La Ceiba, Honduras

Now
86 °F

Scattered clouds.


Feels Like: 95 °F
Forecast: N/A
Wind: 9 mph from Northeast

Location: La Ceiba Airport

Current Time: Apr 25, 2015 at 5:27:58 PM

Latest Report: Apr 25, 2015 at 5:00 PM


Visibility: N/A

Pressure: 29.77 "Hg

Humidity: 70%

Dew point: 75 °F

Location of La CeibaLocation

Historic Weather in La Ceiba — Graph

°F

La Ceiba temperature yesterday

Maximum temperature yesterday: 90 °F (at 12:00 PM)
Minimum temperature yesterday: 72 °F (at 4:00 AM)
Average temperature yesterday: 81 °F

Past Weeks' High & Low Weather Summary

 TemperatureHumidityPressure
High90 °F (Apr 13, 2:00 PM)100% (Apr 18, 4:00 AM)32.22 "Hg (Apr 18, 4:00 AM)
Low70 °F (Apr 11, 6:00 AM)19% (Apr 24, 8:00 AM)29.53 "Hg (Apr 20, 2:00 AM)
Average81 °F79%29.87 "Hg
* Reported Apr 10 4:00 PM — Apr 25 4:00 PM, La Ceiba, Weather by CustomWeather, © 2015

Note: Actual official high and low records may vary slightly from our data, if they occured in-between our weather recording intervals... More about our weather records

Advertising

La Ceiba weather history for previous 24 hours

 ConditionsComfort  
Time TempWeatherWind HumidityBarometerVisibility
4:00 PM
Sat, Apr 25
88 °FScattered clouds.9 mph66%29.77 "Hg5 mi
3:00 PM90 °FScattered clouds.10 mph63%29.80 "Hg3 mi
2:00 PM88 °FScattered clouds.9 mph70%29.83 "Hg2 mi
1:00 PM88 °FScattered clouds.6 mph70%29.83 "Hg5 mi
12:00 PM88 °FScattered clouds.6 mph70%29.86 "Hg2 mi
11:00 AM88 °FScattered clouds.7 mph70%29.89 "Hg3 mi
10:00 AM88 °FPassing clouds.6 mph70%29.89 "Hg2 mi
9:00 AM86 °FScattered clouds.5 mph70%29.89 "Hg2 mi
8:00 AM81 °FScattered clouds.3 mph79%29.89 "Hg2 mi
7:00 AM75 °FScattered clouds.No wind89%29.89 "Hg2 mi
6:00 AM70 °FScattered clouds.2 mph94%29.86 "Hg2 mi
5:00 AM72 °FPassing clouds.3 mph94%29.83 "Hg4 mi
4:00 AM73 °FPassing clouds.3 mph94%29.83 "HgN/A
3:00 AM73 °FPassing clouds.No wind94%29.83 "HgN/A
2:00 AM73 °FPassing clouds.2 mph94%29.86 "HgN/A
1:00 AM73 °FPassing clouds.2 mph94%29.86 "HgN/A
12:00 AM75 °FPassing clouds.No wind89%29.89 "HgN/A
11:00 PM
Fri, Apr 24
75 °FPassing clouds.No wind89%29.89 "HgN/A
10:00 PM77 °FPassing clouds.No wind83%29.89 "HgN/A
9:00 PM77 °FPassing clouds.2 mph89%29.89 "HgN/A
8:00 PM79 °FPassing clouds.2 mph84%29.86 "HgN/A
7:00 PM82 °FPassing clouds.7 mph74%29.83 "HgN/A
6:00 PM82 °FScattered clouds.7 mph74%29.83 "HgN/A
5:00 PM86 °FScattered clouds.10 mph70%29.83 "HgN/A
Weather by CustomWeather, © 2015

See weather overviewHow to use our weather pages